Edwards AFB North Base, CA

10:51 AM PST on November 12, 2019 (GMT -0800)
Edwards AFB North Base

Weather History for K9L2 - September, 2019

Change the Weather History Date:

Monday, September 23, 2019

  Actual Average (KEDW) Record (KEDW)
Temperature  
Mean Temperature 72 °F -  
Max Temperature 90 °F 87 °F 100 °F (2003)
Min Temperature 54 °F 54 °F 43 °F (2017)
Cooling Degree Days 6    
Growing Degree Days 22 (Base 50)    
Moisture  
Dew Point 34 °F    
Average Humidity 26    
Maximum Humidity 54    
Minimum Humidity 6    
Precipitation  
Precipitation 0.00 in - - ()
Sea Level Pressure  
Sea Level Pressure 29.88 in    
Wind  
Wind Speed 8 mph ()    
Max Wind Speed 17 mph    
Max Gust Speed 23 mph    
Visibility 7.5 miles    
Events      
Averages and records for this station are not official NWS values.
T = Trace of Precipitation, MM = Missing Value Source: Averaged Metar Reports

Daily Weather History Graph

Daily Weather History Graph

Search for Another Location

Airport or City:

Astronomy

Sep. 23, 2019 Rise Set
Actual Time 6:40 AM PDT 6:46 PM PDT
Civil Twilight 6:14 AM PDT 7:12 PM PDT
Nautical Twilight 5:45 AM PDT 7:41 PM PDT
Astronomical Twilight 5:15 AM PDT 8:11 PM PDT
Moon 12:42 AM PDT (9/23) 3:30 PM PDT (9/23)
Length of Visible Light 12h 57m
Length of Day
12h 06m
Waning Crescent, 32% of the Moon is Illuminated
Sep 23
Waning Crescent
Sep 28
New
Oct 5
First Quarter
Oct 13
Full
Oct 21
Last Quarter

Hourly Weather History & Observations

Time (PDT) Temp. Dew Point Humidity Pressure Visibility Wind Dir Wind Speed Gust Speed Precip Events Conditions
12:58 AM 68.2 °F 36.3 °F 31% 29.87 in 8.0 mi East 8.1 mph - N/A   Clear
1:58 AM 62.2 °F 36.1 °F 38% 29.88 in 8.0 mi SE 8.1 mph - N/A   Clear
2:58 AM 59.5 °F 35.2 °F 40% 29.87 in 9.0 mi SE 9.2 mph - N/A   Clear
3:58 AM 56.5 °F 35.8 °F 46% 29.87 in 9.0 mi SE 9.2 mph - N/A   Clear
4:58 AM 56.5 °F 36.5 °F 47% 29.87 in 9.0 mi SE 9.2 mph - N/A   Clear
5:58 AM 54.7 °F 36.1 °F 50% 29.88 in 9.0 mi SE 9.2 mph - N/A   Clear
6:58 AM 56.5 °F 39.9 °F 54% 29.90 in 8.0 mi SE 11.5 mph - N/A   Clear
7:58 AM 60.4 °F 39.9 °F 47% 29.92 in 7.0 mi Calm Calm - N/A   Clear
8:58 AM 74.1 °F 41.9 °F 31% 29.92 in 6.0 mi SSW 5.8 mph - N/A   Haze
9:13 AM 75.2 °F 42.8 °F 31% 29.92 in 7.0 mi SSW 11.5 mph - N/A   Clear
9:28 AM 78.8 °F 41.0 °F 26% 29.92 in 7.0 mi SW 12.7 mph - N/A   Clear
9:43 AM 80.6 °F 39.2 °F 23% 29.91 in 6.0 mi SW 12.7 mph - N/A   Haze
9:58 AM 80.6 °F 37.9 °F 22% 29.91 in 6.0 mi SSW 13.8 mph - N/A   Haze
10:58 AM 83.8 °F 28.2 °F 13% 29.91 in 6.0 mi SSW 12.7 mph - N/A   Haze
11:13 AM 84.2 °F 26.6 °F 12% 29.91 in 7.0 mi SW 11.5 mph - N/A   Clear
11:58 AM 85.3 °F 23.0 °F 10% 29.88 in 8.0 mi South 12.7 mph - N/A   Clear
12:58 PM 87.1 °F 11.1 °F 6% 29.86 in 8.0 mi South 9.2 mph - N/A   Clear
1:58 PM 87.8 °F 24.4 °F 10% 29.85 in 8.0 mi SSW 12.7 mph 16.1 mph N/A   Clear
2:58 PM 89.4 °F 28.0 °F 11% 29.83 in 8.0 mi South 11.5 mph 17.3 mph N/A   Clear
3:58 PM 89.6 °F 31.1 °F 12% 29.83 in 7.0 mi WSW 10.4 mph - N/A   Partly Cloudy
4:28 PM 89.6 °F 37.4 °F 16% 29.82 in 6.0 mi SSW 16.1 mph 20.7 mph N/A   Haze
4:58 PM 87.4 °F 39.2 °F 18% 29.82 in 6.0 mi SSW 17.3 mph 23.0 mph N/A   Haze
5:58 PM 86.2 °F 30.9 °F 14% 29.83 in 6.0 mi SW 8.1 mph - N/A   Haze
6:58 PM 81.3 °F 32.4 °F 17% 29.86 in 6.0 mi WSW 9.2 mph - N/A   Haze
7:13 PM 78.8 °F 32.0 °F 18% 29.87 in 7.0 mi SW 8.1 mph - N/A   Clear
7:58 PM 76.1 °F 35.6 °F 23% 29.88 in 8.0 mi SW 10.4 mph - N/A   Clear
8:58 PM 73.8 °F 36.7 °F 26% 29.90 in 8.0 mi SW 4.6 mph - N/A   Clear
9:58 PM 70.0 °F 37.4 °F 30% 29.91 in 8.0 mi South 3.5 mph - N/A   Clear
10:58 PM 64.4 °F 35.6 °F 34% 29.92 in 10.0 mi Calm Calm - N/A   Clear
11:58 PM 62.2 °F 35.8 °F 37% 29.92 in 10.0 mi SSE 5.8 mph - N/A   Clear